LRIA Weather Reports


time (UTC)temp
C
wind
direction
speed
KPH
gust
KPH
rain 1hr
cm
rain 24hr
cm
rain mn
cm
humidity
%
barometer
mb
20260503224823 11 250 3.2 0.0 0.00 0.00 0.00 44 1017.0
20260503223335 11 250 3.2 0.0 0.00 0.00 0.00 44 1017.0
20260503221840 11 240 3.2 0.0 0.00 0.00 0.00 44 1017.0
20260503220405 11 240 3.2 0.0 0.00 0.00 0.00 44 1017.0
20260503214830 11 1.6 0.0 0.00 0.00 0.00 44 1017.0
20260503213323 11 1.6 0.0 0.00 0.00 0.00 44 1017.0
20260503211824 12 3.2 0.0 0.00 0.00 0.00 41 1017.0
20260503210323 12 3.2 0.0 0.00 0.00 0.00 41 1017.0
20260503204830 12 220 8.0 0.0 0.00 0.00 0.00 41 1018.0
20260503203440 12 220 8.0 0.0 0.00 0.00 0.00 41 1018.0
20260503201823 12 230 8.0 0.0 0.00 0.00 0.00 41 1018.0
20260503200332 12 230 8.0 0.0 0.00 0.00 0.00 41 1018.0
20260503194848 12 220 8.0 0.0 0.00 0.00 0.00 44 1018.0
20260503193441 12 220 8.0 0.0 0.00 0.00 0.00 44 1018.0
20260503191823 12 210 8.0 0.0 0.00 0.00 0.00 41 1018.0
20260503190323 12 210 8.0 0.0 0.00 0.00 0.00 41 1018.0
20260503184940 13 220 4.8 0.0 0.00 0.00 0.00 36 1018.0
20260503183323 13 220 4.8 0.0 0.00 0.00 0.00 36 1018.0
20260503181823 13 260 4.8 0.0 0.00 0.00 0.00 33 1018.0
20260503180323 13 260 4.8 0.0 0.00 0.00 0.00 33 1018.0
20260503174843 13 270 8.0 0.0 0.00 0.00 0.00 36 1018.0
20260503173348 13 270 8.0 0.0 0.00 0.00 0.00 36 1018.0
20260503171823 15 3.2 0.0 0.00 0.00 0.00 34 1018.0
20260503170324 15 3.2 0.0 0.00 0.00 0.00 34 1018.0
20260503150323 16 330 8.0 0.0 0.00 0.00 0.00 34 1019.0
20260503130323 16 4.8 0.0 0.00 0.00 0.00 27 1020.0
20260503110344 16 4.8 0.0 0.00 0.00 0.00 27 1022.0
20260503090344 15 70 9.7 0.0 0.00 0.00 0.00 31 1023.0
20260503080334 13 3.2 0.0 0.00 0.00 0.00 27 1023.0
20260503071822 12 3.2 0.0 0.00 0.00 0.00 33 1023.0
20260503070324 12 3.2 0.0 0.00 0.00 0.00 33 1023.0
20260503060323 10 3.2 0.0 0.00 0.00 0.00 47 1023.0
20260503054823 8 3.2 0.0 0.00 0.00 0.00 50 1023.0
20260503053323 8 3.2 0.0 0.00 0.00 0.00 50 1023.0
20260503051823 6 220 3.2 0.0 0.00 0.00 0.00 61 1023.0
20260503050323 6 220 3.2 0.0 0.00 0.00 0.00 61 1023.0
20260503044823 5 3.2 0.0 0.00 0.00 0.00 66 1023.0
20260503043324 5 3.2 0.0 0.00 0.00 0.00 66 1023.0
20260503041823 3 0 0.0 0.0 0.00 0.00 0.00 70 1023.0
20260503040346 3 0 0.0 0.0 0.00 0.00 0.00 70 1023.0
20260503034825 2 230 3.2 0.0 0.00 0.00 0.00 81 1023.0
20260503033323 2 230 3.2 0.0 0.00 0.00 0.00 81 1023.0
20260503031823 2 0 0.0 0.0 0.00 0.00 0.00 75 1023.0
20260503030323 2 0 0.0 0.0 0.00 0.00 0.00 75 1023.0
20260503024838 1 260 1.6 0.0 0.00 0.00 0.00 75 1023.0
20260503023323 1 260 1.6 0.0 0.00 0.00 0.00 75 1023.0
20260503021823 2 290 4.8 0.0 0.00 0.00 0.00 65 1023.0
20260503020323 2 290 4.8 0.0 0.00 0.00 0.00 65 1023.0
20260503014824 3 280 3.2 0.0 0.00 0.00 0.00 65 1023.0
20260503013323 3 280 3.2 0.0 0.00 0.00 0.00 65 1023.0
20260503011823 3 0 0.0 0.0 0.00 0.00 0.00 65 1023.0
20260503010323 3 0 0.0 0.0 0.00 0.00 0.00 65 1023.0
20260503004823 3 290 1.6 0.0 0.00 0.00 0.00 70 1023.0
20260503003323 3 290 1.6 0.0 0.00 0.00 0.00 70 1023.0
20260503001823 2 250 1.6 0.0 0.00 0.00 0.00 70 1023.0
20260503000323 2 250 1.6 0.0 0.00 0.00 0.00 70 1023.0
20260502234823 6 280 3.2 0.0 0.00 0.00 0.00 61 1023.0
20260502233323 6 280 3.2 0.0 0.00 0.00 0.00 61 1023.0
20260502231823 7 0 0.0 0.0 0.00 0.00 0.00 53 1023.0
20260502230323 7 0 0.0 0.0 0.00 0.00 0.00 53 1023.0